Servet Ana — TCMF7 — position and weather

sailwx.info

Track history (hours):
 
Tides and Currents Weather Stations Pressure Air Temp Water Temp Dewpoint Dewpoint Depression Visibility Wind Speed Wind Dir Waves Ship Positions

Servet Ana

Last reported at 2014-Nov-23 11:31 UTC. Time now 2014-Nov-23 12:01 UTC.
Position N 36°59' E 023°51'.

Length 178 m; draft 6.1 m.

Type: Ship. MMSI: 271042643.

Date/timePositionNaut miles runAvg speedWind from/ knotsBaromVisibWave heightAir tempDewpointWater temp
2014-Nov-23 11:31N 36°59' E 023°51'41912.6
2014-Nov-22 02:11N 36°34' E 015°09'2213.2
2014-Nov-22 00:31N 36°37' E 014°42'1414.0
2014-Nov-21 23:33N 36°40' E 014°26'1413.7
2014-Nov-21 22:33N 36°42' E 014°09'1413.9
2014-Nov-21 21:33N 36°44' E 013°52'1413.9
2014-Nov-21 20:33N 36°47' E 013°34'1413.7
2014-Nov-21 19:30N 36°49' E 013°17'22413.2
2014-Nov-21 02:31N 37°40' E 008°42'1212.9
2014-Nov-21 01:33N 37°43' E 008°27'1312.8
2014-Nov-21 00:33N 37°46' E 008°11'1313.0
2014-Nov-20 23:33N 37°50' E 007°56'4313.5
2014-Nov-20 20:21N 38°02' E 007°03'1113.0
2014-Nov-20 19:30N 38°05' E 006°50'2712.6
2014-Nov-20 17:24N 38°12' E 006°17'6112.3
2014-Nov-20 12:25N 38°29' E 005°02'5113.0
2014-Nov-20 08:29N 38°43' E 003°59'1213.2
2014-Nov-20 07:33N 38°47' E 003°44'1313.3
2014-Nov-20 06:33N 38°50' E 003°28'1312.8
2014-Nov-20 05:33N 38°54' E 003°12'1313.0
2014-Nov-20 04:33N 38°57' E 002°56'1313.1
2014-Nov-20 03:33N 39°01' E 002°40'1313.2
2014-Nov-20 02:33N 39°05' E 002°23'1313.3
2014-Nov-20 01:33N 39°08' E 002°07'1313.1
2014-Nov-20 00:33N 39°13' E 001°51'1313.2
2014-Nov-19 23:33N 39°20' E 001°36'1313.3
2014-Nov-19 22:33N 39°26' E 001°21'4013.3
2014-Nov-19 19:33N 39°45' E 000°35'28 1.6
2014-Nov-19 02:12N 39°59' E 000°04'  
2014-Nov-14 18:33N 39°30' E 001°13'1412.3
2014-Nov-14 17:23N 39°23' E 001°30'911.0
2014-Nov-14 16:33N 39°20' E 001°40'1212.2
2014-Nov-14 15:33N 39°14' E 001°54'1211.7
2014-Nov-14 14:33N 39°09' E 002°08'2311.4
2014-Nov-14 12:33N 39°02' E 002°36'1111.6
2014-Nov-14 11:33N 38°59' E 002°50'1211.7
2014-Nov-14 10:33N 38°56' E 003°05'1211.6
2014-Nov-14 09:33N 38°54' E 003°19'1211.8
2014-Nov-14 08:33N 38°51' E 003°34'  
Track history (hours):
 
Tides and Currents Weather Stations Pressure Air Temp Water Temp Dewpoint Dewpoint Depression Visibility Wind Speed Wind Dir Waves Ship Positions

Servet Ana

Last reported at 2014-Nov-23 11:31 UTC. Time now 2014-Nov-23 12:01 UTC.
Position N 36°59' E 023°51'.

Length 178 m; draft 6.1 m.

Type: Ship. MMSI: 271042643.

Date/timePositionNaut miles runAvg speedWind from/ knotsBaromVisibWave heightAir tempDewpointWater temp
2014-Nov-23 11:31N 36°59' E 023°51'41912.6
2014-Nov-22 02:11N 36°34' E 015°09'2213.2
2014-Nov-22 00:31N 36°37' E 014°42'1414.0
2014-Nov-21 23:33N 36°40' E 014°26'1413.7
2014-Nov-21 22:33N 36°42' E 014°09'1413.9
2014-Nov-21 21:33N 36°44' E 013°52'1413.9
2014-Nov-21 20:33N 36°47' E 013°34'1413.7
2014-Nov-21 19:30N 36°49' E 013°17'22413.2
2014-Nov-21 02:31N 37°40' E 008°42'1212.9
2014-Nov-21 01:33N 37°43' E 008°27'1312.8
2014-Nov-21 00:33N 37°46' E 008°11'1313.0
2014-Nov-20 23:33N 37°50' E 007°56'4313.5
2014-Nov-20 20:21N 38°02' E 007°03'1113.0
2014-Nov-20 19:30N 38°05' E 006°50'2712.6
2014-Nov-20 17:24N 38°12' E 006°17'6112.3
2014-Nov-20 12:25N 38°29' E 005°02'5113.0
2014-Nov-20 08:29N 38°43' E 003°59'1213.2
2014-Nov-20 07:33N 38°47' E 003°44'1313.3
2014-Nov-20 06:33N 38°50' E 003°28'1312.8
2014-Nov-20 05:33N 38°54' E 003°12'1313.0
2014-Nov-20 04:33N 38°57' E 002°56'1313.1
2014-Nov-20 03:33N 39°01' E 002°40'1313.2
2014-Nov-20 02:33N 39°05' E 002°23'1313.3
2014-Nov-20 01:33N 39°08' E 002°07'1313.1
2014-Nov-20 00:33N 39°13' E 001°51'1313.2
2014-Nov-19 23:33N 39°20' E 001°36'1313.3
2014-Nov-19 22:33N 39°26' E 001°21'4013.3
2014-Nov-19 19:33N 39°45' E 000°35'28 1.6
2014-Nov-19 02:12N 39°59' E 000°04'  
2014-Nov-14 18:33N 39°30' E 001°13'1412.3
2014-Nov-14 17:23N 39°23' E 001°30'911.0
2014-Nov-14 16:33N 39°20' E 001°40'1212.2
2014-Nov-14 15:33N 39°14' E 001°54'1211.7
2014-Nov-14 14:33N 39°09' E 002°08'2311.4
2014-Nov-14 12:33N 39°02' E 002°36'1111.6
2014-Nov-14 11:33N 38°59' E 002°50'1211.7
2014-Nov-14 10:33N 38°56' E 003°05'1211.6
2014-Nov-14 09:33N 38°54' E 003°19'1211.8
2014-Nov-14 08:33N 38°51' E 003°34'  

Dump ship's entire track history